This demonstration page uses our WeatherBlox Daily Observations layout. Learn more.

Left ArrowRight Arrow

Hourly Observations for November 27, 2020

Temp ( °F °C ) Dew Point ( °F °C ) Humidity (%) Winds ( mph kmh ) Pressure ( in mb ) Visibility ( mi km ) Precip ( " mm )
12:54 am 00:54 Cloudy 33 0.6 30 -1.1 89 89 NNW 8 13 30.2 1023 7 11.26538 0 0
1:33 am 01:33 Cloudy with Mist and Fog 31 -0.6 29 -1.7 92 92 NNE 5 7 30.24 1024 1.75 2.816345 0 0
1:46 am 01:46 Mostly Cloudy with Mist and Fog 31 -0.6 30 -1.1 96 96 N 5 7 30.25 1024 0.75 1.207005 0 0
1:54 am 01:54 Mostly Cloudy with Mist and Fog 31 -0.6 29 -1.7 92 92 NNW 5 7 30.2 1023 1 1.60934 0 0
2:03 am 02:03 Mostly Cloudy with Freezing Fog 31 -0.6 29 -1.7 92 92 NNW 3 6 30.24 1024 0.5 0.80467 0 0
2:15 am 02:15 Mostly Cloudy with Freezing Fog 31 -0.6 30 -1.1 96 96 N 3 6 30.24 1024 0.25 0.402335 0 0
2:44 am 02:44 Mostly Cloudy with Freezing Fog 31 -0.6 29 -1.7 92 92 NW 5 7 30.26 1025 0.5 0.80467 0 0
2:54 am 02:54 Mostly Cloudy with Freezing Fog 31 -0.6 29 -1.7 92 92 WNW 7 11 30.22 1024 0.5 0.80467 0 0
3:46 am 03:46 Cloudy with Mist and Fog 29 -1.7 28 -2.2 96 96 WNW 5 7 30.28 1025 1.25 2.011675 0 0
3:54 am 03:54 Cloudy with Mist and Fog 29 -1.7 27 -2.8 92 92 WNW 3 6 30.24 1024 0.75 1.207005 0 0
4:16 am 04:16 Mostly Cloudy with Freezing Fog 29 -1.7 28 -2.2 96 96 SSW 3 6 30.27 1025 0.5 0.80467 0 0
4:26 am 04:26 Mostly Cloudy with Freezing Fog 29 -1.7 27 -2.8 92 92 SSW 3 6 30.28 1025 0.25 0.402335 0 0
4:54 am 04:54 Mostly Cloudy with Freezing Fog 29 -1.7 26 -3.3 89 89 W 3 6 30.24 1024 0.25 0.402335 0 0
5:09 am 05:09 Mostly Cloudy with Freezing Fog 28 -2.2 26 -3.3 92 92 Calm 30.29 1026 0.5 0.80467 0 0
5:27 am 05:27 Mostly Cloudy with Freezing Fog 27 -2.8 24 -4.4 89 89 Calm 30.29 1026 0.25 0.402335 0 0
5:37 am 05:37 Mostly Cloudy with Freezing Fog 28 -2.2 25 -3.9 88 88 Calm 30.29 1026 0.5 0.80467 0 0
5:43 am 05:43 Partly Cloudy with Mist and Fog 27 -2.8 24 -4.4 89 89 Calm 30.29 1026 1.25 2.011675 0 0
5:54 am 05:54 Mostly Clear with Mist and Fog 27 -2.8 24 -4.4 89 89 Calm 30.26 1025 1.5 2.41401 0 0
6:04 am 06:04 Clear with Mist and Fog 26 -3.3 24 -4.4 92 92 Calm 30.3 1026 3 4.82802 0 0
6:54 am 06:54 Clear 24 -4.4 21 -6.1 88 88 Calm 30.28 1025 8 12.87472 0 0
7:54 am 07:54 Sunny 25 -3.9 22 -5.6 88 88 Calm 30.3 1026 7 11.26538 0 0
8:54 am 08:54 Sunny 32 0 28 -2.2 85 85 Calm 30.32 1027 10 16.0934 0 0
9:54 am 09:54 Sunny 38 3.3 30 -1.1 73 73 Calm 30.32 1027 10 16.0934 0 0
10:54 am 10:54 Sunny 45 7.2 28 -2.2 52 52 WNW 5 7 30.32 1027 10 16.0934 0 0
11:54 am 11:54 Sunny 48 8.9 27 -2.8 44 44 WNW 3 6 30.31 1026 10 16.0934 0 0
12:54 pm 12:54 Sunny 51 10.6 24 -4.4 35 35 W 3 6 30.28 1026 10 16.0934 0 0
1:54 pm 13:54 Sunny 52 11.1 24 -4.4 34 34 W 12 19 30.27 1025 10 16.0934 0 0
2:54 pm 14:54 Sunny 52 11.1 23 -5 32 32 W 12 19 30.25 1024 10 16.0934 0 0
3:54 pm 15:54 Sunny 51 10.6 24 -4.4 35 35 W 10 17 30.25 1024 10 16.0934 0 0
4:54 pm 16:54 Sunny 49 9.4 24 -4.4 38 38 WSW 3 6 30.24 1024 10 16.0934 0 0
5:54 pm 17:54 Clear 43 6.1 24 -4.4 47 47 SSW 3 6 30.26 1025 10 16.0934 0 0
6:54 pm 18:54 Clear 37 2.8 24 -4.4 59 59 Calm 30.26 1025 10 16.0934 0 0
7:54 pm 19:54 Clear 35 1.7 24 -4.4 64 64 S 3 6 30.27 1025 10 16.0934 0 0
8:54 pm 20:54 Clear 34 1.1 23 -5 64 64 Calm 30.27 1025 10 16.0934 0 0
9:54 pm 21:54 Clear 36 2.2 24 -4.4 62 62 Calm 30.25 1024 10 16.0934 0 0
10:54 pm 22:54 Clear 33 0.6 24 -4.4 70 70 S 5 7 30.24 1024 10 16.0934 0 0
11:54 pm 23:54 Clear 30 -1.1 23 -5 75 75 SSE 6 9 30.25 1024 10 16.0934 0 0

Powered by AerisWeather